Weather History for PHBK - May, 2013

Change the Weather History Date:

Saturday, May 25, 2013

  Actual Average Record
Temperature  
Mean Temperature 78 °F -  
Max Temperature 84 °F 86 °F 89 °F (1964)
Min Temperature 71 °F 64 °F 60 °F (1950)
Cooling Degree Days 12    
Growing Degree Days 28 (Base 50)    
Moisture  
Dew Point 66 °F    
Average Humidity 68    
Maximum Humidity 81    
Minimum Humidity 55    
Precipitation  
Precipitation 0.00 in - - ()
Sea Level Pressure  
Sea Level Pressure 30.06 in    
Wind  
Wind Speed 3 mph (WSW)    
Max Wind Speed 9 mph    
Max Gust Speed -    
Visibility 10 miles    
Events      
Averages and records for this station are not official NWS values.
T = Trace of Precipitation, MM = Missing Value Source: NWS Daily Summary

Daily Weather History Graph

Daily Weather History Graph

Search for Another Location

Airport or City:

Trip Planner

Search our weather history database for the weather conditions in past years. The results will help you decide how hot, cold, wet, or windy it might be!

Date:

Astronomy

May. 25, 2013 Rise Set
Actual Time 5:56 AM HST 7:16 PM HST
Civil Twilight 5:31 AM HST 7:40 PM HST
Nautical Twilight 5:02 AM HST 8:09 PM HST
Astronomical Twilight 4:32 AM HST 8:39 PM HST
Moon 8:17 PM HST (5/25) 6:33 AM HST (5/25)
Length of Visible Light 14h 08m
Length of Day
13h 19m
Full, 99% of the Moon is Illuminated
May 25
Full
May 31
Last Quarter
Jun 8
New
Jun 16
First Quarter
Jun 23
Full

Hourly Weather History & Observations

Time (HST) Temp. Heat Index Dew Point Humidity Pressure Visibility Wind Dir Wind Speed Gust Speed Precip Events Conditions
12:56 AM 73.9 °F - 66.0 °F 76% 30.06 in 10.0 mi Calm Calm - N/A   Partly Cloudy
1:56 AM 73.0 °F - 66.0 °F 79% 30.05 in 10.0 mi Calm Calm - N/A   Clear
2:56 AM 73.0 °F - 66.9 °F 81% 30.05 in 10.0 mi SE 3.5 mph - N/A   Overcast
3:56 AM 72.0 °F - 66.0 °F 81% 30.05 in 10.0 mi East 3.5 mph - N/A   Clear
4:56 AM 72.0 °F - 66.0 °F 81% 30.06 in 10.0 mi East 3.5 mph - N/A   Clear
5:56 AM 71.1 °F - 64.9 °F 81% 30.06 in 10.0 mi Calm Calm - N/A   Clear
6:56 AM 73.9 °F - 66.0 °F 76% 30.07 in 10.0 mi Calm Calm - N/A   Clear
7:56 AM 78.1 °F - 68.0 °F 71% 30.07 in 10.0 mi South 4.6 mph - N/A   Clear
8:56 AM 79.0 °F - 66.9 °F 66% 30.08 in 10.0 mi SW 5.8 mph - N/A   Clear
9:56 AM 81.0 °F 83.8 °F 68.0 °F 65% 30.08 in 10.0 mi West 5.8 mph - N/A   Mostly Cloudy
10:56 AM 82.0 °F 84.5 °F 66.9 °F 60% 30.08 in 10.0 mi WNW 9.2 mph - N/A   Partly Cloudy
11:56 AM 82.0 °F 84.9 °F 68.0 °F 62% 30.06 in 10.0 mi West 5.8 mph - N/A   Clear
12:56 PM 82.9 °F 85.4 °F 66.9 °F 58% 30.05 in 10.0 mi West 5.8 mph - N/A   Clear
1:56 PM 84.0 °F 86.3 °F 66.0 °F 55% 30.04 in 10.0 mi SW 8.1 mph - N/A   Scattered Clouds
2:56 PM 84.0 °F 86.5 °F 66.9 °F 56% 30.03 in 10.0 mi West 9.2 mph - N/A   Partly Cloudy
3:56 PM 82.9 °F 85.4 °F 66.9 °F 58% 30.03 in 10.0 mi NW 6.9 mph - N/A   Mostly Cloudy
4:56 PM 82.0 °F 84.5 °F 66.9 °F 60% 30.02 in 10.0 mi West 6.9 mph - N/A   Scattered Clouds
5:56 PM 82.0 °F 84.9 °F 68.0 °F 62% 30.02 in 10.0 mi West 6.9 mph - N/A   Mostly Cloudy
6:56 PM 81.0 °F 83.3 °F 66.9 °F 62% 30.04 in 10.0 mi NW 5.8 mph - N/A   Partly Cloudy
7:56 PM 79.0 °F - 66.0 °F 64% 30.06 in 10.0 mi South 5.8 mph - N/A   Clear
8:56 PM 77.0 °F - 64.9 °F 66% 30.07 in 10.0 mi Calm Calm - N/A   Partly Cloudy
9:56 PM 75.0 °F - 64.0 °F 69% 30.09 in 10.0 mi SSE 3.5 mph - N/A   Clear
10:56 PM 73.9 °F - 64.0 °F 71% 30.10 in 10.0 mi Calm Calm - N/A   Clear
11:56 PM 72.0 °F - 63.0 °F 73% 30.09 in 10.0 mi Calm Calm - N/A   Clear